TimeEDT,TemperatureF,Dew PointF,Humidity,Sea Level PressureIn,VisibilityMPH,Wind Direction,Wind SpeedMPH,Gust SpeedMPH,PrecipitationIn,Events,Conditions,WindDirDegrees,DateUTC
12:53 AM,64.0,55.0,73,30.17,10.0,South,8.1,-,N/A,,Clear,180,2014-04-13 04:53:00
1:53 AM,62.1,55.0,78,30.17,10.0,SSW,6.9,-,N/A,,Clear,200,2014-04-13 05:53:00
2:53 AM,60.1,55.9,86,30.16,10.0,SSW,4.6,-,N/A,,Clear,200,2014-04-13 06:53:00
3:53 AM,59.0,55.9,90,30.16,9.0,SSE,4.6,-,N/A,,Clear,150,2014-04-13 07:53:00
4:53 AM,57.9,55.9,93,30.15,5.0,South,3.5,-,N/A,,Clear,180,2014-04-13 08:53:00
5:44 AM,57.9,55.9,93,30.18,1.5,SSE,3.5,-,N/A,,Clear,160,2014-04-13 09:44:00
5:53 AM,55.9,55.0,97,30.17,0.8,Calm,Calm,-,N/A,,Mist,0,2014-04-13 09:53:00
5:56 AM,55.9,54.0,93,30.19,1.2,South,3.5,-,N/A,,Scattered Clouds,170,2014-04-13 09:56:00
6:10 AM,55.0,54.0,96,30.19,0.2,SSE,3.5,-,N/A,Fog,Fog,160,2014-04-13 10:10:00
6:53 AM,55.0,53.1,93,30.19,0.5,SSE,3.5,-,N/A,Fog,Fog,160,2014-04-13 10:53:00
7:03 AM,54.0,53.1,97,30.21,0.2,Calm,Calm,-,N/A,Fog,Fog,0,2014-04-13 11:03:00
7:53 AM,57.9,57.0,97,30.21,0.2,SSE,4.6,-,N/A,Fog,Fog,150,2014-04-13 11:53:00
8:15 AM,59.0,57.9,96,30.23,1.0,SSE,5.8,-,N/A,,Overcast,160,2014-04-13 12:15:00
8:25 AM,60.1,59.0,96,30.23,3.0,South,5.8,-,N/A,,Mostly Cloudy,180,2014-04-13 12:25:00
8:40 AM,60.1,59.0,96,30.23,5.0,South,5.8,-,N/A,,Scattered Clouds,180,2014-04-13 12:40:00
8:53 AM,62.1,59.0,90,30.22,9.0,SSW,5.8,-,N/A,,Clear,200,2014-04-13 12:53:00
9:53 AM,72.0,60.1,66,30.22,10.0,SSW,11.5,-,N/A,,Clear,200,2014-04-13 13:53:00
10:53 AM,75.9,59.0,56,30.20,10.0,SW,15.0,-,N/A,,Scattered Clouds,230,2014-04-13 14:53:00
11:53 AM,78.1,57.9,50,30.19,10.0,South,8.1,19.6,N/A,,Clear,190,2014-04-13 15:53:00
12:53 PM,79.0,55.9,45,30.17,10.0,South,11.5,-,N/A,,Mostly Cloudy,190,2014-04-13 16:53:00
1:53 PM,81.0,55.0,41,30.15,10.0,South,15.0,19.6,N/A,,Scattered Clouds,180,2014-04-13 17:53:00
2:53 PM,82.0,55.0,39,30.13,10.0,SSW,12.7,-,N/A,,Clear,210,2014-04-13 18:53:00
3:53 PM,82.0,54.0,38,30.11,10.0,SW,8.1,-,N/A,,Partly Cloudy,220,2014-04-13 19:53:00
4:53 PM,82.0,54.0,38,30.09,10.0,SSE,12.7,-,N/A,,Overcast,150,2014-04-13 20:53:00
5:53 PM,80.1,52.0,38,30.09,10.0,South,15.0,-,N/A,,Clear,180,2014-04-13 21:53:00
6:53 PM,78.1,48.9,36,30.09,10.0,South,11.5,-,N/A,,Clear,170,2014-04-13 22:53:00
8:53 PM,71.1,50.0,47,30.12,10.0,South,9.2,-,N/A,,Clear,170,2014-04-14 00:53:00
9:53 PM,68.0,53.1,59,30.12,10.0,SSE,10.4,-,N/A,,Clear,160,2014-04-14 01:53:00
10:53 PM,66.0,54.0,65,30.12,10.0,SSE,8.1,-,N/A,,Clear,160,2014-04-14 02:53:00
11:53 PM,64.0,55.0,73,30.11,10.0,SSE,6.9,-,N/A,,Clear,160,2014-04-14 03:53:00